Dewpoint
56 56 57 57 57 57 57 57 58 58 58 59 59 59 59 59 58 48 32 38 44 60 50 37 36 33 35 35 34 30 25 23 22 22 22 26 22 23 23 29 30 26 26 28 40
56 56 56 56 56 56 57 57 57 57 58 58 58 59 59 59 46 37 47 58 62 58 35 32 31 32 31 33 34 28 21 18 21 23 22 21 24 24 32 21 22 24 27 34 41
56 55 55 56 56 56 57 57 57 57 57 57 58 58 59 57 26 16 58 59 63 53 35 31 32 31 29 38 34 29 25 23 23 26 28 24 23 22 26 22 22 21 22 32 38
56 55 55 55 56 56 57 57 57 57 57 57 57 58 59 48 11 26 63 63 62 36 32 30 30 29 29 28 32 33 31 29 30 30 28 25 25 23 22 24 23 23 23 31 33
56 56 56 55 56 56 57 57 57 57 57 56 57 58 49 25 21 51 61 61 42 36 31 29 28 29 27 28 29 31 31 31 31 31 30 28 28 26 24 26 25 24 25 28 31
56 56 56 56 56 57 57 58 57 58 57 57 56 57 36 19 31 52 49 39 37 32 31 29 27 30 28 28 27 27 28 28 28 27 29 27 26 26 26 26 26 26 25 25 29
56 56 56 56 57 57 58 58 58 58 58 57 56 54 37 19 39 45 39 35 35 33 30 31 31 30 29 27 28 27 25 23 24 25 26 27 24 25 25 26 24 24 25 26 26
56 56 56 56 57 57 58 58 58 58 57 57 57 47 20 34 39 37 34 31 33 32 30 31 31 30 28 29 23 20 24 17 16 25 24 24 13 13 18 21 20 20 22 24 25
56 56 56 57 57 57 58 58 56 57 57 57 48 32 19 43 35 36 32 30 30 31 31 32 30 27 28 22 18 18 12 14 15 21 20 24 20 20 22 22 22 22 22 23 23
56 56 57 57 57 58 57 55 54 53 52 50 40 29 26 25 35 34 32 31 30 30 28 29 29 24 26 19 12 14 15 16 13 15 24 21 23 23 22 23 23 23 23 22 22
57 57 57 57 58 58 49 34 29 29 32 25 28 24 28 34 37 33 33 31 31 26 23 27 21 19 18 22 17 14 13 13 14 15 20 19 18 20 22 22 21 20 21 23 24
57 57 57 57 58 56 41 36 36 34 31 32 30 31 32 35 30 34 30 27 27 23 26 25 22 21 21 22 22 21 19 18 18 19 20 19 19 20 20 20 20 20 20 21 21
57 57 57 57 57 50 41 39 45 43 33 31 33 29 28 31 25 29 29 28 26 25 25 22 22 26 22 20 20 21 20 17 19 21 22 21 19 21 22 23 22 23 23 22 22
58 57 57 57 52 48 41 42 43 36 30 29 24 29 32 32 26 32 31 27 26 23 25 24 25 23 25 22 21 19 20 20 21 21 18 19 13 13 13 16 19 20 19 20 21
58 58 58 55 52 50 44 44 43 31 30 29 24 31 34 24 27 28 31 28 24 24 22 17 22 23 23 22 23 21 22 21 21 21 20 19 17 18 16 15 16 17 17 18 20
58 58 57 53 51 50 46 43 34 31 30 28 25 27 26 28 28 29 29 28 28 26 26 24 25 23 21 23 23 23 24 24 23 21 18 17 16 12 13 15 15 17 17 19 20
54 56 56 55 51 49 45 43 37 32 33 24 20 26 23 19 24 26 27 26 23 22 20 20 23 25 24 22 25 23 20 17 16 18 16 17 17 13 14 16 17 16 17 18 20
52 54 55 55 52 54 53 44 33 37 35 33 28 27 27 25 27 25 25 22 24 24 17 20 21 20 23 21 19 22 21 21 16 15 16 19 15 16 18 19 19 18 19 20 19
52 54 54 55 55 55 49 37 35 38 39 37 37 35 33 30 27 27 24 25 25 24 21 19 20 23 24 23 21 20 21 22 21 23 19 16 18 20 21 19 18 18 18 19 19
48 50 51 55 55 52 44 37 36 38 39 35 33 34 30 31 26 25 25 26 25 25 23 23 21 21 21 26 26 21 22 20 23 17 16 16 16 17 19 19 19 18 19 22 22
45 40 44 54 52 46 38 37 37 39 39 37 36 34 33 32 27 29 28 28 25 25 24 23 22 26 23 22 20 21 22 22 21 23 18 17 18 20 20 21 21 20 22 24 21
42 35 45 53 42 42 37 37 39 38 40 39 41 40 37 36 34 33 34 33 31 29 30 27 31 28 26 29 25 24 23 23 22 21 21 21 20 23 23 23 24 24 23 21 23
39 38 46 50 34 35 36 36 38 36 36 38 37 39 37 36 34 34 32 37 37 36 36 35 32 28 28 28 30 29 29 25 27 25 23 21 20 25 24 25 26 30 31 31 31
39 32 39 44 41 38 34 33 33 37 36 37 37 38 36 35 36 33 34 37 35 35 39 39 34 31 26 26 30 29 30 30 29 24 26 27 29 31 31 32 32 28 27 25 26
36 32 35 32 33 36 36 34 32 32 36 35 33 35 34 33 32 31 31 29 30 31 31 30 25 29 27 25 26 26 23 22 20 20 21 22 23 24 27 25 24 28 24 24 23
31 31 34 31 30 31 33 30 29 30 31 30 32 35 33 32 30 27 26 26 24 26 21 22 19 20 17 17 17 17 15 14 14 14 14 17 21 23 22 20 20 27 28 25 23
33 34 33 26 27 26 26 28 28 29 32 32 29 29 27 29 27 26 26 27 24 20 17 19 16 7 10 12 10 5 4 2 5 13 20 19 20 23 21 18 15 27 26 22 18
Lifted_Index
11 11 11 11 11 10 10 10 10 10 10 9 9 9 9 9 10 10 10 11 10 10 11 10 9 9 9 9 9 8 5 4 4 5 5 6 6 6 7 6 6 7 8 8 8
11 11 11 11 11 11 10 10 10 10 10 10 9 9 9 9 10 10 11 10 10 10 11 10 10 9 9 9 9 8 6 5 5 6 6 6 6 6 6 5 5 6 7 8 8
11 11 11 11 11 11 10 10 10 10 10 10 10 9 9 9 9 9 10 9 9 10 11 11 10 9 8 8 8 7 6 6 6 7 7 6 6 6 5 4 5 6 7 8 8
11 11 11 11 11 10 10 10 10 10 11 10 10 10 10 9 9 8 8 7 8 10 11 11 10 9 8 8 8 7 6 6 7 7 7 6 6 6 5 4 5 6 7 7 7
11 11 11 11 10 10 10 10 10 10 11 11 10 10 10 9 9 9 8 8 9 10 10 10 9 8 8 7 7 7 6 7 7 7 6 6 6 6 6 5 5 6 7 7 7
11 10 10 10 9 9 9 10 10 10 10 11 11 11 10 9 9 10 9 10 10 10 10 10 10 9 8 7 7 7 6 6 6 6 6 6 6 6 6 5 5 6 6 7 7
9 9 9 8 8 8 8 9 9 10 10 10 10 10 10 9 10 11 11 11 11 10 10 10 10 9 9 8 8 7 6 6 5 6 6 6 6 5 6 6 6 6 6 7 7
8 8 7 7 7 7 7 8 8 9 9 10 10 10 9 9 10 11 11 11 11 11 11 10 10 9 8 8 7 7 6 5 5 6 7 7 6 5 6 7 6 6 6 7 7
7 7 7 7 6 6 7 7 7 8 9 10 10 9 8 8 9 10 11 11 11 11 10 10 10 9 7 6 6 6 6 5 5 6 7 7 7 7 7 8 7 7 6 6 6
6 6 6 6 6 6 6 6 7 8 9 9 9 8 8 8 8 9 10 10 10 9 9 9 8 7 6 5 5 6 6 6 6 6 7 8 8 8 8 8 7 7 6 6 6
5 5 5 5 6 5 5 6 7 8 8 8 7 7 7 8 8 8 9 9 8 8 7 7 6 5 5 6 6 6 6 6 6 7 8 8 8 9 9 8 7 6 6 5 5
5 5 5 5 5 5 5 6 7 8 7 6 6 6 6 7 7 7 8 7 7 6 6 6 6 5 6 6 6 6 6 6 7 8 9 8 8 8 8 8 7 6 5 5 5
4 4 4 5 5 5 5 6 8 8 7 6 6 6 7 7 7 7 8 7 6 6 6 6 6 6 6 6 6 6 6 7 7 8 8 8 7 8 8 8 7 6 5 5 5
4 4 4 4 4 4 5 6 8 7 6 5 6 7 8 8 7 8 9 8 7 6 6 7 7 7 7 6 6 6 6 7 7 7 7 7 6 7 8 8 7 6 6 6 6
3 4 4 3 3 4 5 6 6 5 4 5 7 8 8 8 8 9 10 9 7 7 7 7 7 7 6 6 6 6 6 7 7 6 6 6 5 6 8 8 8 7 7 6 6
3 3 3 3 3 4 5 5 4 3 4 5 6 7 7 7 8 8 9 8 7 7 6 6 6 6 6 5 5 5 5 5 5 5 4 5 5 5 7 8 8 8 7 7 7
3 3 3 2 3 3 4 4 3 3 4 5 5 5 6 6 6 6 7 7 6 6 5 5 6 6 5 5 5 5 4 3 3 2 3 4 5 5 7 8 8 7 7 7 6
3 3 3 3 3 3 4 3 3 4 4 4 4 5 5 5 5 5 5 5 5 5 5 5 5 6 5 5 5 4 3 2 1 1 3 4 5 6 7 7 6 5 6 6 6
4 4 4 3 3 3 3 3 3 4 4 4 4 4 4 4 4 4 4 5 4 4 4 4 5 6 6 6 5 5 4 3 2 1 2 3 5 6 7 6 5 4 5 5 5
5 5 5 4 3 3 4 4 4 4 4 4 4 4 4 4 3 3 4 4 4 4 4 4 5 6 6 6 6 5 4 4 3 2 1 2 4 5 6 6 5 4 5 5 5
6 6 6 5 4 4 5 5 5 5 4 4 4 4 4 4 4 4 4 4 4 4 4 4 4 5 6 6 5 4 4 3 2 2 1 1 3 5 6 6 5 5 5 6 6
7 7 7 5 5 5 6 6 6 5 5 4 4 4 4 4 4 4 4 4 4 4 4 3 3 3 4 5 4 4 3 3 2 2 2 2 3 4 4 4 5 5 6 6 7
8 8 7 6 6 6 6 6 6 6 5 4 4 3 3 3 3 4 4 4 4 3 3 3 2 2 2 3 3 2 2 2 1 1 1 1 2 2 2 2 3 4 5 6 6
9 8 7 6 6 6 6 6 6 6 5 5 4 3 3 3 3 3 4 4 4 3 3 2 2 1 1 1 2 1 1 1 1 1 1 1 2 2 2 3 3 3 4 5 5
9 9 8 7 7 6 6 6 6 6 5 5 4 4 4 4 4 4 4 4 4 3 3 3 2 2 2 2 2 2 1 2 2 2 2 3 4 4 4 4 4 3 3 4 4
10 9 9 8 8 7 6 6 6 6 5 5 5 4 4 4 4 4 4 4 4 3 3 3 3 3 3 3 3 3 3 3 3 4 5 5 5 6 5 5 5 4 4 4 5
11 10 9 8 8 7 7 7 6 6 5 5 5 4 4 4 4 4 4 4 4 4 3 3 3 3 3 4 3 3 3 3 4 5 6 6 6 6 6 5 5 5 5 6 6